Time,TemperatureF,DewpointF,PressureIn,WindDirection,WindDirectionDegrees,WindSpeedMPH,WindSpeedGustMPH,Humidity,HourlyPrecipIn,Conditions,Clouds,dailyrainin,SoftwareType,DateUTC
2013-03-23 00:00:00,26.0,14.8,30.05,SSE,153,0.0,0.0,62,0.00,,,0.02,Wunderground v.1.15,2013-03-23 05:00:00,
2013-03-23 00:10:00,25.8,14.6,30.05,SSE,153,0.0,0.0,62,0.00,,,0.02,Wunderground v.1.15,2013-03-23 05:10:00,
2013-03-23 00:15:00,25.8,14.6,30.04,SSE,153,0.0,0.0,62,0.00,,,0.02,Wunderground v.1.15,2013-03-23 05:15:00,
2013-03-23 00:25:00,25.8,14.6,30.04,SSE,153,0.0,0.0,62,0.00,,,0.02,Wunderground v.1.15,2013-03-23 05:25:00,
2013-03-23 00:30:00,25.8,14.6,30.04,SSE,153,0.0,0.0,62,0.00,,,0.02,Wunderground v.1.15,2013-03-23 05:30:00,
2013-03-23 00:40:00,25.8,14.9,30.04,SSE,153,0.0,0.0,63,0.00,,,0.02,Wunderground v.1.15,2013-03-23 05:40:00,
2013-03-23 00:45:00,25.8,14.9,30.04,SSE,153,0.0,0.0,63,0.00,,,0.02,Wunderground v.1.15,2013-03-23 05:45:00,
2013-03-23 00:50:00,25.8,14.9,30.04,SSE,153,0.0,0.0,63,0.00,,,0.02,Wunderground v.1.15,2013-03-23 05:50:00,
2013-03-23 01:00:00,25.8,14.9,30.03,SSE,153,0.0,0.0,63,0.00,,,0.02,Wunderground v.1.15,2013-03-23 06:00:00,
2013-03-23 01:06:00,25.8,14.9,30.03,SSE,153,0.0,0.0,63,0.00,,,0.02,Wunderground v.1.15,2013-03-23 06:06:00,
2013-03-23 01:15:00,25.8,14.9,30.03,SSE,153,0.0,0.0,63,0.00,,,0.00,Wunderground v.1.15,2013-03-23 06:15:00,
2013-03-23 01:20:00,25.8,14.9,30.03,SSE,153,0.0,0.0,63,0.00,,,0.00,Wunderground v.1.15,2013-03-23 06:20:00,
2013-03-23 01:25:00,25.7,14.8,30.03,SSE,153,0.0,0.0,63,0.00,,,0.00,Wunderground v.1.15,2013-03-23 06:25:00,
2013-03-23 01:30:00,25.7,14.8,30.03,SSE,153,0.0,0.0,63,0.00,,,0.00,Wunderground v.1.15,2013-03-23 06:30:00,
2013-03-23 01:35:00,25.7,14.8,30.03,SSE,153,0.0,0.0,63,0.00,,,0.00,Wunderground v.1.15,2013-03-23 06:35:00,
2013-03-23 01:45:00,25.7,14.8,30.03,SSE,153,0.0,0.0,63,0.00,,,0.00,Wunderground v.1.15,2013-03-23 06:45:00,
2013-03-23 01:55:00,25.6,14.7,30.03,SSE,153,0.0,0.0,63,0.00,,,0.00,Wunderground v.1.15,2013-03-23 06:55:00,
2013-03-23 02:00:00,25.6,14.7,30.02,SSE,153,0.0,0.0,63,0.00,,,0.00,Wunderground v.1.15,2013-03-23 07:00:00,
2013-03-23 02:06:00,25.6,14.7,30.02,SSE,153,0.0,0.0,63,0.00,,,0.00,Wunderground v.1.15,2013-03-23 07:06:00,
2013-03-23 02:15:00,25.6,14.7,30.01,SSE,153,0.0,0.0,63,0.00,,,0.00,Wunderground v.1.15,2013-03-23 07:15:00,
2013-03-23 02:20:00,25.6,14.7,30.01,SSE,153,0.0,0.0,63,0.00,,,0.00,Wunderground v.1.15,2013-03-23 07:20:00,
2013-03-23 02:25:00,25.6,14.7,30.01,SSE,153,0.0,0.0,63,0.00,,,0.00,Wunderground v.1.15,2013-03-23 07:25:00,
2013-03-23 02:30:00,25.4,14.5,30.02,SSE,153,0.0,0.0,63,0.00,,,0.00,Wunderground v.1.15,2013-03-23 07:30:00,
2013-03-23 02:35:00,25.4,14.5,30.02,SSE,153,0.0,0.0,63,0.00,,,0.00,Wunderground v.1.15,2013-03-23 07:35:00,
2013-03-23 02:40:00,25.3,14.5,30.02,SSE,153,0.0,0.0,63,0.00,,,0.00,Wunderground v.1.15,2013-03-23 07:40:00,
2013-03-23 02:50:00,25.0,13.8,30.02,SSE,153,0.0,0.0,62,0.00,,,0.00,Wunderground v.1.15,2013-03-23 07:50:00,
2013-03-23 02:55:00,24.8,13.6,30.02,SSE,153,0.0,0.0,62,0.00,,,0.00,Wunderground v.1.15,2013-03-23 07:55:00,
2013-03-23 03:00:00,24.5,13.3,30.02,SSE,153,0.0,0.0,62,0.00,,,0.00,Wunderground v.1.15,2013-03-23 08:00:00,
2013-03-23 03:06:00,24.2,13.4,30.02,SSE,153,0.0,0.0,63,0.00,,,0.00,Wunderground v.1.15,2013-03-23 08:06:00,
2013-03-23 03:15:00,23.8,13.4,30.01,SSE,153,0.0,0.0,64,0.00,,,0.00,Wunderground v.1.15,2013-03-23 08:15:00,
2013-03-23 03:20:00,23.6,12.8,30.01,SSE,153,0.0,0.0,63,0.00,,,0.00,Wunderground v.1.15,2013-03-23 08:20:00,
2013-03-23 03:25:00,23.3,12.6,30.01,SSE,153,0.0,0.0,63,0.00,,,0.00,Wunderground v.1.15,2013-03-23 08:25:00,
2013-03-23 03:30:00,23.2,12.8,30.02,SSE,153,0.0,0.0,64,0.00,,,0.00,Wunderground v.1.15,2013-03-23 08:30:00,
2013-03-23 03:40:00,22.7,12.3,30.02,SSE,153,0.0,0.0,64,0.00,,,0.00,Wunderground v.1.15,2013-03-23 08:40:00,
2013-03-23 03:45:00,22.5,12.1,30.04,SSE,153,0.0,0.0,64,0.00,,,0.00,Wunderground v.1.15,2013-03-23 08:45:00,
2013-03-23 03:50:00,22.2,11.9,30.04,SSE,153,0.0,0.0,64,0.00,,,0.00,Wunderground v.1.15,2013-03-23 08:50:00,
2013-03-23 03:55:00,21.9,11.6,30.04,SSE,153,0.0,0.0,64,0.00,,,0.00,Wunderground v.1.15,2013-03-23 08:55:00,
2013-03-23 04:00:00,21.8,11.5,30.05,SSE,153,0.0,0.0,64,0.00,,,0.00,Wunderground v.1.15,2013-03-23 09:00:00,
2013-03-23 04:10:00,21.3,11.4,30.05,SSE,153,0.0,0.0,65,0.00,,,0.00,Wunderground v.1.15,2013-03-23 09:10:00,
2013-03-23 04:15:00,21.1,11.2,30.05,SSE,153,0.0,0.0,65,0.00,,,0.00,Wunderground v.1.15,2013-03-23 09:15:00,
2013-03-23 04:20:00,21.0,11.1,30.05,SSE,153,0.0,0.0,65,0.00,,,0.00,Wunderground v.1.15,2013-03-23 09:20:00,
2013-03-23 04:25:00,20.8,11.2,30.05,SSE,153,0.0,0.0,66,0.00,,,0.00,Wunderground v.1.15,2013-03-23 09:25:00,
2013-03-23 04:30:00,20.6,11.0,30.05,SSE,153,0.0,0.0,66,0.00,,,0.00,Wunderground v.1.15,2013-03-23 09:30:00,
2013-03-23 04:35:00,20.5,10.9,30.05,SSE,153,0.0,0.0,66,0.00,,,0.00,Wunderground v.1.15,2013-03-23 09:35:00,
2013-03-23 04:40:00,20.3,10.4,30.05,SSE,153,0.0,0.0,65,0.00,,,0.00,Wunderground v.1.15,2013-03-23 09:40:00,
2013-03-23 04:50:00,20.2,10.3,30.07,SSE,153,0.0,0.0,65,0.00,,,0.00,Wunderground v.1.15,2013-03-23 09:50:00,
2013-03-23 04:55:00,20.0,10.1,30.07,SSE,153,0.0,0.0,65,0.00,,,0.00,Wunderground v.1.15,2013-03-23 09:55:00,
2013-03-23 05:00:00,19.9,10.4,30.07,SSE,153,0.0,0.0,66,0.00,,,0.00,Wunderground v.1.15,2013-03-23 10:00:00,
2013-03-23 05:06:00,19.9,10.4,30.07,SSE,153,0.0,0.0,66,0.00,,,0.00,Wunderground v.1.15,2013-03-23 10:06:00,
2013-03-23 05:15:00,19.7,10.2,30.07,SSE,153,0.0,0.0,66,0.00,,,0.00,Wunderground v.1.15,2013-03-23 10:15:00,
2013-03-23 05:20:00,19.5,10.0,30.07,SSE,153,0.0,0.0,66,0.00,,,0.00,Wunderground v.1.15,2013-03-23 10:20:00,
2013-03-23 05:25:00,19.5,10.0,30.07,SSE,153,0.0,0.0,66,0.00,,,0.00,Wunderground v.1.15,2013-03-23 10:25:00,
2013-03-23 05:30:00,19.4,9.9,30.07,SSE,153,0.0,0.0,66,0.00,,,0.00,Wunderground v.1.15,2013-03-23 10:30:00,
2013-03-23 05:35:00,19.2,9.7,30.07,SSE,153,0.0,0.0,66,0.00,,,0.00,Wunderground v.1.15,2013-03-23 10:35:00,
2013-03-23 05:45:00,19.1,9.6,30.08,SSE,153,0.0,0.0,66,0.00,,,0.00,Wunderground v.1.15,2013-03-23 10:45:00,
2013-03-23 05:50:00,19.1,9.6,30.08,SSE,153,0.0,0.0,66,0.00,,,0.00,Wunderground v.1.15,2013-03-23 10:50:00,
2013-03-23 05:55:00,18.9,9.4,30.08,SSE,153,0.0,0.0,66,0.00,,,0.00,Wunderground v.1.15,2013-03-23 10:55:00,
2013-03-23 06:00:00,18.8,9.3,30.08,SSE,153,0.0,0.0,66,0.00,,,0.00,Wunderground v.1.15,2013-03-23 11:00:00,
2013-03-23 06:06:00,18.8,9.3,30.08,SSE,153,0.0,0.0,66,0.00,,,0.00,Wunderground v.1.15,2013-03-23 11:06:00,
2013-03-23 06:15:00,18.6,9.5,30.08,SSE,153,0.0,0.0,67,0.00,,,0.00,Wunderground v.1.15,2013-03-23 11:15:00,
2013-03-23 06:20:00,18.4,9.3,30.08,SSE,153,0.0,0.0,67,0.00,,,0.00,Wunderground v.1.15,2013-03-23 11:20:00,
2013-03-23 06:25:00,18.3,9.2,30.08,SSE,153,0.0,0.0,67,0.00,,,0.00,Wunderground v.1.15,2013-03-23 11:25:00,
2013-03-23 06:35:00,18.1,9.0,30.08,SSE,153,0.0,0.0,67,0.00,,,0.00,Wunderground v.1.15,2013-03-23 11:35:00,
2013-03-23 06:45:00,18.0,8.9,30.08,SSE,153,0.0,0.0,67,0.00,,,0.00,Wunderground v.1.15,2013-03-23 11:45:00,
2013-03-23 06:50:00,17.8,8.7,30.08,SSE,153,0.0,0.0,67,0.00,,,0.00,Wunderground v.1.15,2013-03-23 11:50:00,
2013-03-23 07:00:00,17.7,8.6,30.07,SSE,153,0.0,0.0,67,0.00,,,0.00,Wunderground v.1.15,2013-03-23 12:00:00,
2013-03-23 07:06:00,17.5,8.4,30.07,SSE,153,0.0,0.0,67,0.00,,,0.00,Wunderground v.1.15,2013-03-23 12:06:00,
2013-03-23 07:15:00,17.3,8.5,30.07,SSE,153,0.0,0.0,68,0.00,,,0.00,Wunderground v.1.15,2013-03-23 12:15:00,
2013-03-23 07:20:00,17.3,8.5,30.07,SSE,153,0.0,0.0,68,0.00,,,0.00,Wunderground v.1.15,2013-03-23 12:20:00,
2013-03-23 07:25:00,17.3,8.5,30.07,SSE,153,0.0,0.0,68,0.00,,,0.00,Wunderground v.1.15,2013-03-23 12:25:00,
2013-03-23 07:30:00,17.2,8.8,30.08,SSE,153,0.0,0.0,69,0.00,,,0.00,Wunderground v.1.15,2013-03-23 12:30:00,
2013-03-23 07:35:00,17.2,8.8,30.08,SSE,153,0.0,0.0,69,0.00,,,0.00,Wunderground v.1.15,2013-03-23 12:35:00,
2013-03-23 07:40:00,17.3,9.2,30.08,SSE,153,0.0,0.0,70,0.00,,,0.00,Wunderground v.1.15,2013-03-23 12:40:00,
2013-03-23 07:50:00,17.3,9.5,30.09,SSE,153,0.0,0.0,71,0.00,,,0.00,Wunderground v.1.15,2013-03-23 12:50:00,
2013-03-23 07:55:00,17.5,9.7,30.09,SSE,153,0.0,0.0,71,0.00,,,0.00,Wunderground v.1.15,2013-03-23 12:55:00,
2013-03-23 08:06:00,17.7,10.2,30.09,SSE,153,0.0,0.0,72,0.00,,,0.00,Wunderground v.1.15,2013-03-23 13:06:00,
2013-03-23 08:15:00,18.0,10.8,30.08,SSE,153,0.0,0.0,73,0.00,,,0.00,Wunderground v.1.15,2013-03-23 13:15:00,
2013-03-23 08:25:00,20.8,13.5,30.08,SSE,153,0.0,0.0,73,0.00,,,0.00,Wunderground v.1.15,2013-03-23 13:25:00,
2013-03-23 08:35:00,22.1,14.1,30.09,SSE,153,0.0,0.0,71,0.00,,,0.00,Wunderground v.1.15,2013-03-23 13:35:00,
2013-03-23 08:40:00,22.5,13.9,30.09,SSE,153,0.0,0.0,69,0.00,,,0.00,Wunderground v.1.15,2013-03-23 13:40:00,
2013-03-23 08:45:00,23.0,14.0,30.10,SSE,153,0.0,0.0,68,0.00,,,0.00,Wunderground v.1.15,2013-03-23 13:45:00,
2013-03-23 08:50:00,23.5,14.1,30.10,SSE,153,0.0,0.0,67,0.00,,,0.00,Wunderground v.1.15,2013-03-23 13:50:00,
2013-03-23 09:00:00,24.1,14.0,30.10,SSE,153,0.0,0.0,65,0.00,,,0.00,Wunderground v.1.15,2013-03-23 14:00:00,
2013-03-23 09:06:00,24.5,14.1,30.10,SSE,153,0.0,0.0,64,0.00,,,0.00,Wunderground v.1.15,2013-03-23 14:06:00,
2013-03-23 09:15:00,25.6,14.7,30.08,SSE,153,0.0,0.0,63,0.00,,,0.00,Wunderground v.1.15,2013-03-23 14:15:00,
2013-03-23 09:20:00,26.0,14.4,30.08,SSE,153,0.0,0.0,61,0.00,,,0.00,Wunderground v.1.15,2013-03-23 14:20:00,
2013-03-23 09:25:00,27.0,15.3,30.08,SSE,153,0.0,0.0,61,0.00,,,0.00,Wunderground v.1.15,2013-03-23 14:25:00,
2013-03-23 09:30:00,28.2,15.7,30.08,SSE,153,0.0,0.0,59,0.00,,,0.00,Wunderground v.1.15,2013-03-23 14:30:00,
2013-03-23 09:35:00,27.9,15.0,30.08,SSE,153,0.0,0.0,58,0.00,,,0.00,Wunderground v.1.15,2013-03-23 14:35:00,
2013-03-23 09:40:00,28.1,15.6,30.08,SSE,153,0.0,0.0,59,0.00,,,0.00,Wunderground v.1.15,2013-03-23 14:40:00,
2013-03-23 09:45:00,28.1,15.2,30.09,SSE,153,0.0,0.0,58,0.00,,,0.00,Wunderground v.1.15,2013-03-23 14:45:00,
2013-03-23 09:55:00,28.8,15.1,30.09,SE,141,0.0,0.0,56,0.00,,,0.00,Wunderground v.1.15,2013-03-23 14:55:00,
2013-03-23 10:00:00,30.0,15.8,30.09,SE,139,0.0,0.0,55,0.00,,,0.00,Wunderground v.1.15,2013-03-23 15:00:00,
2013-03-23 10:10:00,30.3,15.2,30.09,ESE,110,0.0,0.0,53,0.00,,,0.00,Wunderground v.1.15,2013-03-23 15:10:00,
2013-03-23 10:15:00,31.3,17.0,30.09,ESE,110,0.0,0.0,55,0.00,,,0.00,Wunderground v.1.15,2013-03-23 15:15:00,
2013-03-23 10:25:00,32.1,15.5,30.09,SSW,203,0.0,0.0,50,0.00,,,0.00,Wunderground v.1.15,2013-03-23 15:25:00,
2013-03-23 10:30:00,32.2,14.7,30.09,ESE,110,0.0,0.0,48,0.00,,,0.00,Wunderground v.1.15,2013-03-23 15:30:00,
2013-03-23 10:35:00,32.2,15.2,30.09,ESE,110,0.0,0.0,49,0.00,,,0.00,Wunderground v.1.15,2013-03-23 15:35:00,
2013-03-23 10:40:00,33.1,16.9,30.09,WNW,291,0.0,0.0,51,0.00,,,0.00,Wunderground v.1.15,2013-03-23 15:40:00,
2013-03-23 10:45:00,33.4,16.3,30.08,WNW,291,0.0,0.0,49,0.00,,,0.00,Wunderground v.1.15,2013-03-23 15:45:00,
2013-03-23 10:50:00,34.3,15.1,30.08,South,184,0.0,0.0,45,0.00,,,0.00,Wunderground v.1.15,2013-03-23 15:50:00,
2013-03-23 11:00:00,33.4,14.8,30.08,NE,53,0.0,0.0,46,0.00,,,0.00,Wunderground v.1.15,2013-03-23 16:00:00,
2013-03-23 11:06:00,34.3,14.6,30.08,SE,143,0.0,0.0,44,0.00,,,0.00,Wunderground v.1.15,2013-03-23 16:06:00,
2013-03-23 11:15:00,34.7,15.0,30.08,SE,124,0.0,0.0,44,0.00,,,0.00,Wunderground v.1.15,2013-03-23 16:15:00,
2013-03-23 11:20:00,35.3,14.5,30.08,SE,124,0.0,0.0,42,0.00,,,0.00,Wunderground v.1.15,2013-03-23 16:20:00,
2013-03-23 11:25:00,35.8,16.0,30.08,East,93,0.0,0.0,44,0.00,,,0.00,Wunderground v.1.15,2013-03-23 16:25:00,
2013-03-23 11:30:00,36.8,15.3,30.09,SE,125,0.0,0.0,41,0.00,,,0.00,Wunderground v.1.15,2013-03-23 16:30:00,
2013-03-23 11:40:00,36.2,15.3,30.09,ESE,114,0.0,0.0,42,0.00,,,0.00,Wunderground v.1.15,2013-03-23 16:40:00,
2013-03-23 11:45:00,37.0,16.0,30.09,East,84,0.0,0.0,42,0.00,,,0.00,Wunderground v.1.15,2013-03-23 16:45:00,
2013-03-23 11:50:00,37.0,16.0,30.09,SE,129,0.0,0.0,42,0.00,,,0.00,Wunderground v.1.15,2013-03-23 16:50:00,
2013-03-23 11:55:00,38.0,14.6,30.09,SE,145,0.0,0.0,38,0.00,,,0.00,Wunderground v.1.15,2013-03-23 16:55:00,
2013-03-23 12:16:00,36.3,16.4,30.09,NE,51,0.0,0.0,44,0.00,,,0.00,Wunderground v.1.15,2013-03-23 17:16:00,
2013-03-23 12:25:00,36.6,15.1,30.09,NE,51,0.0,0.0,41,0.00,,,0.00,Wunderground v.1.15,2013-03-23 17:25:00,
2013-03-23 12:30:00,36.2,15.8,30.09,NE,51,0.0,0.0,43,0.00,,,0.00,Wunderground v.1.15,2013-03-23 17:30:00,
2013-03-23 12:40:00,37.0,16.0,30.09,NNE,18,0.0,0.0,42,0.00,,,0.00,Wunderground v.1.15,2013-03-23 17:40:00,
2013-03-23 12:50:00,37.8,15.0,30.09,NNE,30,0.0,0.0,39,0.00,,,0.00,Wunderground v.1.15,2013-03-23 17:50:00,
2013-03-23 13:00:00,38.0,16.9,30.08,NNE,24,0.0,0.0,42,0.00,,,0.00,Wunderground v.1.15,2013-03-23 18:00:00,
2013-03-23 13:05:00,38.8,17.1,30.08,SE,130,0.0,0.0,41,0.00,,,0.00,Wunderground v.1.15,2013-03-23 18:05:00,
2013-03-23 13:15:00,38.2,16.0,30.07,SSE,168,0.0,0.0,40,0.00,,,0.00,Wunderground v.1.15,2013-03-23 18:15:00,
2013-03-23 13:25:00,38.0,15.2,30.07,SSE,167,0.0,0.0,39,0.00,,,0.00,Wunderground v.1.15,2013-03-23 18:25:00,
2013-03-23 13:35:00,39.3,17.0,30.07,SSE,165,0.0,0.0,40,0.00,,,0.00,Wunderground v.1.15,2013-03-23 18:35:00,
2013-03-23 13:40:00,39.1,16.2,30.07,ESE,105,0.0,0.0,39,0.00,,,0.00,Wunderground v.1.15,2013-03-23 18:40:00,
2013-03-23 13:50:00,38.9,17.7,30.07,ESE,105,0.0,0.0,42,0.00,,,0.00,Wunderground v.1.15,2013-03-23 18:50:00,
2013-03-23 14:00:00,38.5,17.4,30.06,SE,142,0.0,0.0,42,0.00,,,0.00,Wunderground v.1.15,2013-03-23 19:00:00,
2013-03-23 14:05:00,39.1,16.2,30.06,SW,233,0.0,0.0,39,0.00,,,0.00,Wunderground v.1.15,2013-03-23 19:05:00,
2013-03-23 14:15:00,38.8,17.6,30.06,East,79,0.0,0.0,42,0.00,,,0.00,Wunderground v.1.15,2013-03-23 19:15:00,
2013-03-23 14:25:00,38.2,15.4,30.06,East,81,0.0,0.0,39,0.00,,,0.00,Wunderground v.1.15,2013-03-23 19:25:00,
2013-03-23 14:35:00,37.9,15.1,30.05,East,81,0.0,0.0,39,0.00,,,0.00,Wunderground v.1.15,2013-03-23 19:35:00,
2013-03-23 14:45:00,38.6,16.9,30.04,SE,144,0.0,0.0,41,0.00,,,0.00,Wunderground v.1.15,2013-03-23 19:45:00,
2013-03-23 14:55:00,38.3,16.6,30.04,ESE,112,0.0,0.0,41,0.00,,,0.00,Wunderground v.1.15,2013-03-23 19:55:00,
2013-03-23 15:00:00,38.2,16.5,30.04,SW,216,0.0,0.0,41,0.00,,,0.00,Wunderground v.1.15,2013-03-23 20:00:00,
2013-03-23 15:05:00,38.5,16.8,30.04,SSW,213,0.0,0.0,41,0.00,,,0.00,Wunderground v.1.15,2013-03-23 20:05:00,
2013-03-23 15:15:00,37.9,16.8,30.03,SSW,193,0.0,0.0,42,0.00,,,0.00,Wunderground v.1.15,2013-03-23 20:15:00,
2013-03-23 15:25:00,37.8,15.0,30.03,SSE,153,0.0,0.0,39,0.00,,,0.00,Wunderground v.1.15,2013-03-23 20:25:00,
2013-03-23 15:30:00,38.0,16.4,30.03,SSE,164,0.0,0.0,41,0.00,,,0.00,Wunderground v.1.15,2013-03-23 20:30:00,
2013-03-23 15:40:00,38.2,16.5,30.03,SSE,164,0.0,0.0,41,0.00,,,0.00,Wunderground v.1.15,2013-03-23 20:40:00,
2013-03-23 15:45:00,38.3,16.1,30.03,SSE,164,0.0,0.0,40,0.00,,,0.00,Wunderground v.1.15,2013-03-23 20:45:00,
2013-03-23 15:55:00,37.9,16.8,30.03,South,188,0.0,0.0,42,0.00,,,0.00,Wunderground v.1.15,2013-03-23 20:55:00,
2013-03-23 16:00:00,37.8,16.2,30.03,South,188,0.0,0.0,41,0.00,,,0.00,Wunderground v.1.15,2013-03-23 21:00:00,
2013-03-23 16:05:00,37.8,16.2,30.03,South,188,0.0,0.0,41,0.00,,,0.00,Wunderground v.1.15,2013-03-23 21:05:00,
2013-03-23 16:15:00,38.0,16.9,30.03,South,190,0.0,0.0,42,0.00,,,0.00,Wunderground v.1.15,2013-03-23 21:15:00,
2013-03-23 16:20:00,38.0,16.4,30.03,South,190,0.0,0.0,41,0.00,,,0.00,Wunderground v.1.15,2013-03-23 21:20:00,
2013-03-23 16:25:00,38.0,16.9,30.03,South,190,0.0,0.0,42,0.00,,,0.00,Wunderground v.1.15,2013-03-23 21:25:00,
2013-03-23 16:30:00,38.2,17.6,30.03,South,190,0.0,0.0,43,0.00,,,0.00,Wunderground v.1.15,2013-03-23 21:30:00,
2013-03-23 16:35:00,38.2,17.1,30.03,South,190,0.0,0.0,42,0.00,,,0.00,Wunderground v.1.15,2013-03-23 21:35:00,
2013-03-23 16:40:00,38.0,17.5,30.03,SSW,193,0.0,0.0,43,0.00,,,0.00,Wunderground v.1.15,2013-03-23 21:40:00,
2013-03-23 16:45:00,38.0,16.9,30.03,SSW,193,0.0,0.0,42,0.00,,,0.00,Wunderground v.1.15,2013-03-23 21:45:00,
2013-03-23 16:50:00,38.0,16.9,30.03,SSW,193,0.0,0.0,42,0.00,,,0.00,Wunderground v.1.15,2013-03-23 21:50:00,
2013-03-23 16:55:00,37.9,16.8,30.03,SSW,193,0.0,0.0,42,0.00,,,0.00,Wunderground v.1.15,2013-03-23 21:55:00,
2013-03-23 17:05:00,37.6,17.1,30.03,SSW,193,0.0,0.0,43,0.00,,,0.00,Wunderground v.1.15,2013-03-23 22:05:00,
2013-03-23 17:15:00,37.3,18.4,30.03,SSW,193,0.0,0.0,46,0.00,,,0.00,Wunderground v.1.15,2013-03-23 22:15:00,
2013-03-23 17:20:00,37.2,18.3,30.03,SSW,193,0.0,0.0,46,0.00,,,0.00,Wunderground v.1.15,2013-03-23 22:20:00,
2013-03-23 17:25:00,36.9,18.0,30.03,SSW,193,0.0,0.0,46,0.00,,,0.00,Wunderground v.1.15,2013-03-23 22:25:00,
2013-03-23 17:30:00,36.8,18.4,30.03,SSW,193,0.0,0.0,47,0.00,,,0.00,Wunderground v.1.15,2013-03-23 22:30:00,
2013-03-23 17:40:00,36.5,17.7,30.03,SSW,193,0.0,0.0,46,0.00,,,0.00,Wunderground v.1.15,2013-03-23 22:40:00,
2013-03-23 17:50:00,36.5,18.2,30.03,South,186,0.0,0.0,47,0.00,,,0.00,Wunderground v.1.15,2013-03-23 22:50:00,
2013-03-23 17:55:00,36.5,18.6,30.03,South,186,0.0,0.0,48,0.00,,,0.00,Wunderground v.1.15,2013-03-23 22:55:00,
2013-03-23 18:00:00,36.3,18.0,30.04,South,186,0.0,0.0,47,0.00,,,0.00,Wunderground v.1.15,2013-03-23 23:00:00,
2013-03-23 18:05:00,35.9,18.1,30.04,South,177,0.0,0.0,48,0.00,,,0.00,Wunderground v.1.15,2013-03-23 23:05:00,
2013-03-23 18:15:00,35.5,18.7,30.04,South,177,0.0,0.0,50,0.00,,,0.00,Wunderground v.1.15,2013-03-23 23:15:00,
2013-03-23 18:25:00,35.2,18.4,30.04,ESE,106,0.0,0.0,50,0.00,,,0.00,Wunderground v.1.15,2013-03-23 23:25:00,
2013-03-23 18:35:00,34.9,18.6,30.05,ESE,106,0.0,0.0,51,0.00,,,0.00,Wunderground v.1.15,2013-03-23 23:35:00,
2013-03-23 18:40:00,34.7,18.4,30.05,ESE,106,0.0,0.0,51,0.00,,,0.00,Wunderground v.1.15,2013-03-23 23:40:00,
2013-03-23 18:50:00,34.1,17.8,30.05,ESE,110,0.0,0.0,51,0.00,,,0.00,Wunderground v.1.15,2013-03-23 23:50:00,
2013-03-23 19:00:00,33.7,17.9,30.05,ESE,112,0.0,0.0,52,0.00,,,0.00,Wunderground v.1.15,2013-03-24 00:00:00,
2013-03-23 19:05:00,33.5,18.2,30.05,ESE,112,0.0,0.0,53,0.00,,,0.00,Wunderground v.1.15,2013-03-24 00:05:00,
2013-03-23 19:15:00,33.1,17.8,30.06,ESE,112,0.0,0.0,53,0.00,,,0.00,Wunderground v.1.15,2013-03-24 00:15:00,
2013-03-23 19:20:00,32.8,17.5,30.06,ESE,114,0.0,0.0,53,0.00,,,0.00,Wunderground v.1.15,2013-03-24 00:20:00,
2013-03-23 19:25:00,32.7,17.9,30.06,ESE,112,0.0,0.0,54,0.00,,,0.00,Wunderground v.1.15,2013-03-24 00:25:00,
2013-03-23 19:35:00,32.4,17.6,30.06,ESE,112,0.0,0.0,54,0.00,,,0.00,Wunderground v.1.15,2013-03-24 00:35:00,
2013-03-23 19:40:00,32.1,17.3,30.06,ESE,112,0.0,0.0,54,0.00,,,0.00,Wunderground v.1.15,2013-03-24 00:40:00,
2013-03-23 19:45:00,31.8,17.5,30.07,ESE,113,0.0,0.0,55,0.00,,,0.00,Wunderground v.1.15,2013-03-24 00:45:00,
2013-03-23 19:50:00,31.6,17.7,30.07,ESE,113,0.0,0.0,56,0.00,,,0.00,Wunderground v.1.15,2013-03-24 00:50:00,
2013-03-23 20:00:00,31.2,17.3,30.07,SE,140,0.0,0.0,56,0.00,,,0.00,Wunderground v.1.15,2013-03-24 01:00:00,
2013-03-23 20:05:00,31.0,17.1,30.07,ESE,113,0.0,0.0,56,0.00,,,0.00,Wunderground v.1.15,2013-03-24 01:05:00,
2013-03-23 20:15:00,30.7,16.8,30.07,ESE,119,0.0,0.0,56,0.00,,,0.00,Wunderground v.1.15,2013-03-24 01:15:00,
2013-03-23 20:20:00,30.6,17.2,30.07,ESE,119,0.0,0.0,57,0.00,,,0.00,Wunderground v.1.15,2013-03-24 01:20:00,
2013-03-23 20:25:00,30.4,17.0,30.07,ESE,119,0.0,0.0,57,0.00,,,0.00,Wunderground v.1.15,2013-03-24 01:25:00,
2013-03-23 20:35:00,30.0,17.4,30.07,ESE,119,0.0,0.0,59,0.00,,,0.00,Wunderground v.1.15,2013-03-24 01:35:00,
2013-03-23 20:40:00,29.8,17.2,30.07,ESE,119,0.0,0.0,59,0.00,,,0.00,Wunderground v.1.15,2013-03-24 01:40:00,
2013-03-23 20:45:00,29.7,17.1,30.07,ESE,119,0.0,0.0,59,0.00,,,0.00,Wunderground v.1.15,2013-03-24 01:45:00,
2013-03-23 20:55:00,29.3,17.5,30.07,ESE,119,0.0,0.0,61,0.00,,,0.00,Wunderground v.1.15,2013-03-24 01:55:00,
2013-03-23 21:00:00,29.1,17.3,30.07,ESE,119,0.0,0.0,61,0.00,,,0.00,Wunderground v.1.15,2013-03-24 02:00:00,
2013-03-23 21:05:00,28.8,17.4,30.07,ESE,119,0.0,0.0,62,0.00,,,0.00,Wunderground v.1.15,2013-03-24 02:05:00,
2013-03-23 21:15:00,28.5,17.1,30.07,ESE,119,0.0,0.0,62,0.00,,,0.00,Wunderground v.1.15,2013-03-24 02:15:00,
2013-03-23 21:25:00,28.2,17.2,30.07,ESE,119,0.0,0.0,63,0.00,,,0.00,Wunderground v.1.15,2013-03-24 02:25:00,
2013-03-23 21:30:00,28.4,17.4,30.06,ESE,119,0.0,0.0,63,0.00,,,0.00,Wunderground v.1.15,2013-03-24 02:30:00,
2013-03-23 21:35:00,28.2,17.6,30.06,ESE,119,0.0,0.0,64,0.00,,,0.00,Wunderground v.1.15,2013-03-24 02:35:00,
2013-03-23 21:45:00,28.2,17.6,30.06,ESE,119,0.0,0.0,64,0.00,,,0.00,Wunderground v.1.15,2013-03-24 02:45:00,
2013-03-23 21:50:00,28.1,17.5,30.06,ESE,119,0.0,0.0,64,0.00,,,0.00,Wunderground v.1.15,2013-03-24 02:50:00,
2013-03-23 21:55:00,28.1,17.8,30.06,ESE,119,0.0,0.0,65,0.00,,,0.00,Wunderground v.1.15,2013-03-24 02:55:00,
2013-03-23 22:05:00,27.8,17.6,30.06,ESE,119,0.0,0.0,65,0.00,,,0.00,Wunderground v.1.15,2013-03-24 03:05:00,
2013-03-23 22:15:00,27.9,17.6,30.06,ESE,119,0.0,0.0,65,0.00,,,0.00,Wunderground v.1.15,2013-03-24 03:15:00,
2013-03-23 22:20:00,27.9,17.6,30.06,ESE,119,0.0,0.0,65,0.00,,,0.00,Wunderground v.1.15,2013-03-24 03:20:00,
2013-03-23 22:25:00,27.9,17.6,30.06,ESE,119,0.0,0.0,65,0.00,,,0.00,Wunderground v.1.15,2013-03-24 03:25:00,
2013-03-23 22:30:00,27.9,17.6,30.06,ESE,119,0.0,0.0,65,0.00,,,0.00,Wunderground v.1.15,2013-03-24 03:30:00,
2013-03-23 22:35:00,27.9,17.6,30.06,ESE,119,0.0,0.0,65,0.00,,,0.00,Wunderground v.1.15,2013-03-24 03:35:00,
2013-03-23 22:45:00,27.6,17.4,30.06,ESE,119,0.0,0.0,65,0.00,,,0.00,Wunderground v.1.15,2013-03-24 03:45:00,
2013-03-23 22:50:00,27.6,17.4,30.06,ESE,119,0.0,0.0,65,0.00,,,0.00,Wunderground v.1.15,2013-03-24 03:50:00,
2013-03-23 22:55:00,27.6,17.4,30.06,ESE,119,0.0,0.0,65,0.00,,,0.00,Wunderground v.1.15,2013-03-24 03:55:00,
2013-03-23 23:00:00,27.6,17.4,30.06,ESE,119,0.0,0.0,65,0.00,,,0.00,Wunderground v.1.15,2013-03-24 04:00:00,
2013-03-23 23:05:00,27.6,17.7,30.06,ESE,119,0.0,0.0,66,0.00,,,0.00,Wunderground v.1.15,2013-03-24 04:05:00,
2013-03-23 23:10:00,27.5,17.6,30.06,ESE,119,0.0,0.0,66,0.00,,,0.00,Wunderground v.1.15,2013-03-24 04:10:00,
2013-03-23 23:15:00,27.3,17.4,30.06,ESE,119,0.0,0.0,66,0.00,,,0.00,Wunderground v.1.15,2013-03-24 04:15:00,
2013-03-23 23:20:00,27.2,17.7,30.06,ESE,119,0.0,0.0,67,0.00,,,0.00,Wunderground v.1.15,2013-03-24 04:20:00,
2013-03-23 23:25:00,27.2,17.7,30.06,ESE,119,0.0,0.0,67,0.00,,,0.00,Wunderground v.1.15,2013-03-24 04:25:00,
2013-03-23 23:30:00,27.0,17.8,30.06,ESE,119,0.0,0.0,68,0.00,,,0.00,Wunderground v.1.15,2013-03-24 04:30:00,
2013-03-23 23:35:00,27.0,17.8,30.06,ESE,119,0.0,0.0,68,0.00,,,0.00,Wunderground v.1.15,2013-03-24 04:35:00,
2013-03-23 23:45:00,27.0,18.2,30.05,ESE,119,0.0,0.0,69,0.00,,,0.00,Wunderground v.1.15,2013-03-24 04:45:00,
2013-03-23 23:50:00,26.9,18.1,30.05,ESE,119,0.0,0.0,69,0.00,,,0.00,Wunderground v.1.15,2013-03-24 04:50:00,
2013-03-23 23:55:00,26.9,18.1,30.05,ESE,119,0.0,0.0,69,0.00,,,0.00,Wunderground v.1.15,2013-03-24 04:55:00,